User: anonymous   Login
Location: Unspecified
(0.0000°N, 0.0000°E)
Time: 19:56:25
(UTC+00:00)
Language:

NUDT-PHONESAT - Orbit

View from above orbital plane
View from above orbital plane
View from above satellite
View from above satellite

Ground track
Ground track

The orbit data is extracted from the following two-line orbital elements,

1 40900U 15049B   17269.51188450  .00003740  00000-0  17682-3 0  9990
2 40900  97.4446 276.0316 0012466 226.3314 133.6889 15.19943014111844
Epoch (UTC): 26 September 2017 12:17:06
Eccentricity: 0.0012466
inclination: 97.4446°
perigee height: 497 km
apogee height: 514 km
right ascension of ascending node: 276.0316°
argument of perigee: 226.3314°
revolutions per day: 15.19943014
mean anomaly at epoch: 133.6889°
orbit number at epoch: 11184

The dashed part of the orbit path shows where the satellite is in the earth's shadow,  

DLR